Regional Weather Roundup
Issued by NWS

Home | Current Version | Previous Version | Text Only | Print | Product List | Glossary Off
Versions: 1 2 3 4 5 6 7 8 9 10 11 12 13 14 15 16 17 18 19 20 21 22 23 24 25 26 27 28 29 30 31 32 33 34 35 36 37 38 39 40 41 42 43 44 45 46 47 48 49 50

000
ASUS45 KBOU 281007
RWRCO

WEATHER ROUNDUP FOR COLORADO
NATIONAL WEATHER SERVICE DENVER/BOULDER CO
400 AM MDT SUN MAY 28 2017

NOTE: "FAIR" INDICATES FEW OR NO CLOUDS BELOW 12000 FEET WITH NO
SIGNIFICANT WEATHER AND/OR OBSTRUCTIONS TO VISIBILITY.

COZ001>005-013-030-031-281100-
...NORTHWEST COLORADO...

CITY           SKY/WX    TMP DP  RH WIND       PRES   REMARKS
CRAIG          FAIR      32  29  88 CALM      30.34R
HAYDEN         FAIR      36  28  75 E9        30.34S
MEEKER         FAIR      35  30  82 CALM      30.33S
RABBIT EARS PA NOT AVBL
STEAMBOAT SPGS NOT AVBL
WALDEN         NOT AVBL
$$

COZ006>008-011-281100-
...WEST CENTRAL VALLEYS...

CITY           SKY/WX    TMP DP  RH WIND       PRES   REMARKS
GRAND JUNCTION FAIR      51  30  44 SE5       30.24S
MONTROSE       FAIR      41  31  67 S9        30.31R
EAGLE          FAIR      32  30  92 E3        30.39S
RIFLE          FAIR      38  29  70 SE6       30.31S
DELTA          FAIR      47  28  46 NE6       30.28S
NUCLA          FAIR      43  28  56 E9        30.31S
$$

COZ017>023-064>068-281100-
...SOUTHWEST COLORADO...

CITY           SKY/WX    TMP DP  RH WIND       PRES   REMARKS
DURANGO        FAIR      40  22  48 N7        30.24S
CORTEZ         FAIR      39  29  67 CALM      30.24R
PAGOSA SPRINGS FAIR      37  22  54 CALM      30.29S
TELLURIDE      FAIR      36  25  64 CALM      30.38S
WOLF CREEK PAS NOT AVBL
$$

COZ009-010-012-014-032>034-037-058>063-281100-
...CENTRAL COLORADO...

CITY           SKY/WX    TMP DP  RH WIND       PRES   REMARKS
ASPEN          FAIR      33  28  81 SW8       30.36F WCI  26
BUENA VISTA    FAIR      35  26  71 CALM      30.36S
COPPER MTN     NOT AVBL
BERTHOUD PASS  NOT AVBL
COTTONWOOD PAS NOT AVBL
GUNNISON       FAIR      31  26  82 S5        30.37S WCI  26
KREMMLING      NOT AVBL
LEADVILLE      FAIR      20  18  92 NE3       30.40F
SALIDA         FAIR      36  27  70 W5        30.44S
SUNLIGHT       NOT AVBL
WILKERSON PASS NOT AVBL
$$

COZ069>075-281100-
...SAN LUIS VALLEY/SANGRE DE CRISTO MOUNTAINS...

CITY           SKY/WX    TMP DP  RH WIND       PRES   REMARKS
ALAMOSA        FAIR      34  31  88 W6        30.32R WCI  29
DEL NORTE      NOT AVBL
LA VETA PASS   NOT AVBL
SAGUACHE       NOT AVBL
$$

COZ035-036-038>040-281100-
...NORTHERN COLORADO FRONT RANGE...

CITY           SKY/WX    TMP DP  RH WIND       PRES   REMARKS
DENVER INTL AP FAIR      43  37  79 SW12      30.24F
DMNS CITY PARK   N/A     43  36  75 SE7       30.25F
AURORA         CLEAR     42  37  83 SW5       30.26S
FRONT RANGE AP NOT AVBL
ERIE MUNI ARPT NOT AVBL
BOULDER MUN AP NOT AVBL
CENTENNIAL     FAIR      44  35  70 SW10      30.26F
BROOMFIELD     NOT AVBL
FORT COLLINS   FAIR      45  35  68 CALM      30.24F
LONGMONT       NOT AVBL
$$

COZ041-046-047-076>085-087-088-281100-
...PIKES PEAK/PALMER DIVIDE AND SOUTHERN FOOTHILLS...

CITY           SKY/WX    TMP DP  RH WIND       PRES   REMARKS
COLO. SPRINGS  FAIR      43  33  68 NW7       30.29S
A. F. ACADEMY  FAIR      33  32  96 N7        30.29S WCI  27
SCHRIEVER AFB  FAIR      46  32  58 NW13G22   30.28F
CHEYENNE MTN   FAIR      48  27  44 NW14      30.24F
ELLICOTT       FAIR     N/A N/A N/A N5        30.26F
FALCON         FAIR      40  32  73 NW8       30.30S
FORT CARSON    FAIR      40  35  83 NW7       30.26F
LIMON          FAIR      39  37  92 W8        30.23F
MONUMENT HILL  NOT AVBL
CANON CITY     NOT AVBL
WALSENBURG     FAIR      45  43  93 W10       30.29S
TRINIDAD       FAIR      41  37  86 W9        30.27S
$$

COZ042>045-048>051-090-091-281100-
...NORTHEAST COLORADO...

CITY           SKY/WX    TMP DP  RH WIND       PRES   REMARKS
GREELEY ARPT   FAIR      41  39  93 W3        30.23F
AKRON          FAIR      43  40  89 W14       30.19S
BURLINGTON     FAIR      45  42  89 W10       30.16S
WRAY           FAIR      46  43  87 W12       30.14S
YUMA           NOT AVBL
STERLING       NOT AVBL
HOLYOKE        NOT AVBL
FORT MORGAN    FAIR      39  37  93 W9        30.21S
$$

COZ086-089-092>099-281100-
...SOUTHEAST COLORADO...

CITY           SKY/WX    TMP DP  RH WIND       PRES   REMARKS
PUEBLO         FAIR      44  41  89 W8        30.24S
LA JUNTA       FAIR      49  45  86 NW10      30.19F
LAMAR          FAIR      46  44  93 W9        30.15S
SPRINGFIELD      N/A     47  45  93 NW12      30.18S
$$



USA.gov is the U.S. government's official web portal to all federal, state and local government web resources and services.